Weather Service Report


268 
ASUS41 KBOX 211810
RWRBOX

REGIONAL WEATHER ROUNDUP
NATIONAL WEATHER SERVICE TAUNTON MA
200 PM EDT THU AUG 21 2014

NOTE:  "FAIR" INDICATES FEW OR NO CLOUDS BELOW 12,000 FEET WITH NO 
SIGNIFICANT WEATHER AND/OR OBSTRUCTIONS TO VISIBILITY.  THE FOLLOWING 
OBSERVATION LOCATIONS DO NOT REPORT PRESENT WEATHER...PROVINCETOWN...
SMITHFIELD...BLOCK ISLAND...KEENE...AND OXFORD.

MAZALL-211900-
EASTERN MASSACHUSETTS
  
CITY           SKY/WX    TMP DP  RH WIND       PRES   REMARKS
BOSTON         PTSUNNY   71  63  75 E10       30.09R                  
6HR MIN TEMP:  63; 6HR MAX TEMP:  72;                                

BEVERLY        PTSUNNY   72  61  68 VRB6      30.08F                  
LAWRENCE       CLOUDY    72  58  61 N7        30.11S                  
BEDFORD        CLOUDY    74  57  55 VRB5      30.07S                  
BLUE HILL        N/A     76  64  66 NE8       30.08F                  
NORWOOD        PTSUNNY   77  63  61 NE10      30.06F                  
MARSHFIELD     NOT AVBL                                               
PLYMOUTH       MOSUNNY   75  62  64 NE10      30.08F                  
TAUNTON        MOSUNNY   79  59  50 VRB5      30.06F                  
NEW BEDFORD    MOSUNNY   77  60  55 E8        30.05F                  
$$

MAZALL-211900-
CAPE COD AND THE ISLANDS
  
CITY           SKY/WX    TMP DP  RH WIND       PRES   REMARKS
FALMOUTH       PTSUNNY   75  64  69 NE10      30.07S                  
HYANNIS        PTSUNNY   76  60  57 NE9       30.05F                  
CHATHAM        SUNNY     73  61  65 NE9       30.08F                  
PROVINCETOWN   SUNNY     73  64  73 MISG      30.09S                  
NANTUCKET      CLOUDY    71  62  73 NE12      30.07R                  
MARTHAS VNYRD  SUNNY     76  61  59 E12       30.06F                  
$$
 
MAZALL-211900-
CENTRAL AND WESTERN MASSACHUSETTS
  
CITY           SKY/WX    TMP DP  RH WIND       PRES   REMARKS
WORCESTER      CLOUDY    70  54  56 CALM      30.11S                  
6HR MIN TEMP:  63; 6HR MAX TEMP:  71;                                

FITCHBURG      LGT RAIN  73  56  54 VRB3      30.11S                  
ORANGE         CLOUDY    66  61  84 NE7       30.09F                  
SPRINGFIELD    CLOUDY    69  66  90 N6        30.07S                  
WESTFIELD      CLOUDY    70  65  84 NE5       30.07S                  
NORTH ADAMS    CLOUDY    70  63  78 E5        30.05F                  
PITTSFIELD     CLOUDY    70  64  81 S6        30.06F                  
$$
 
RIZALL-211900-
RHODE ISLAND
  
CITY           SKY/WX    TMP DP  RH WIND       PRES   REMARKS
PROVIDENCE     PTSUNNY   78  61  55 CALM      30.06F                  
6HR MIN TEMP:  64; 6HR MAX TEMP:  78;                                

NEWPORT        MOSUNNY   76  64  66 S8        30.06F                  
BLOCK ISLAND   SUNNY     73  64  73 E8        30.08F                  
SMITHFIELD     PTSUNNY   75  57  53 CALM      30.08S                  
WESTERLY       PTSUNNY   74  61  63 SE13      30.08S                  
$$
 
CTZALL-211900-
CONNECTICUT
  
CITY           SKY/WX    TMP DP  RH WIND       PRES   REMARKS
BRADLEY INTL   CLOUDY    78  63  59 N7        30.05S                  
6HR MIN TEMP:  66; 6HR MAX TEMP:  78;                                

HARTFORD       CLOUDY    79  60  52 S6        30.04F                  
BRIDGEPORT     CLOUDY    76  58  53 E10       30.06S                  
DANBURY        PTSUNNY   76  63  64 SE7       30.06F                  
GROTON         PTSUNNY   73  66  78 SE10      30.06F                  
NEW HAVEN      CLOUDY    75  62  64 SE7       30.07S                  
CHESTER        FAIR      75  63  64 SE6       30.08F                  
MERIDEN        CLOUDY    78  61  55 S8        30.05F                  
WILLIMANTIC    MOSUNNY   78  55  44 VRB6      30.07S                  
OXFORD         PTSUNNY   75  61  60 S10       30.09S                  
$$

MEZ002-015-021-024-NHZ003-005-008-011-012-014-VTZ005-008-211900-
NORTHERN NEW ENGLAND
  
CITY           SKY/WX    TMP DP  RH WIND       PRES   REMARKS
PORTLAND ME    CLOUDY    69  56  62 SW5       30.11R                  
6HR MIN TEMP:  60; 6HR MAX TEMP:  70; 6HR PCP: TRACE;                

BANGOR ME      PTSUNNY   79  61  53 E7        30.09S                  
CONCORD NH     CLOUDY    68  59  73 SW3       30.11R                  
MANCHESTER NH  CLOUDY    69  55  60 NE6       30.09S                  
NASHUA NH      CLOUDY    70  59  68 N7        30.10F                  
PORTSMOUTH NH  CLOUDY    69  55  60 E3        30.10S                  
JAFFREY NH     LGT RAIN  62  58  86 CALM      30.13S                  
KEENE NH       CLOUDY    64  55  72 CALM      30.10F                  
BURLINGTON VT  CLOUDY    70  62  76 SE16      30.04S                  
MT. WASHINGTON NOT AVBL                                               
$$

NYZ052-076-211900-
EASTERN NEW YORK
  
CITY           SKY/WX    TMP DP  RH WIND       PRES   REMARKS
ALBANY         LGT RAIN  75  65  70 S10       30.01F                  
6HR MIN TEMP:  66; 6HR MAX TEMP:  75;                                

NEW YORK CITY  PTSUNNY   80  61  52 S7        30.04S                  
6HR MIN TEMP:  71; 6HR MAX TEMP:  81;                                

$$
 
ANZALL-211900-
MARINE OBSERVATIONS
  
STATION/POSITION TIME  TEMP    WIND        PRES    VSBY  WAVE
                       AIR SEA DIR/SP/G                  HT/PER
                 (UTC) (F)     (DEG/KT/KT) (MB)    (MI)  (FT/S)
BOSTON BUOY      1750   67 67   70/  8/  8 1019.2F         1/ 7
BUZZARDS BAY     1700          130/  6/  7 1019.4R
NANTUCKET SOUND  1750   66 71   70/  6/  8 1018.1S         1/ 4
MASS BAY-STELLWA 1704   67 67   40/  6/  6   N/A    1 7/8  2/ 6
ISLE OF SHOALS   1800   65      CALM  /  1 1018.9F
S OF BLOCK IS    1708      68                N/A           3/ 7
$$

......................KEY.........................
  SKY/WX - SKY CONDITION/PRESENT WEATHER
  TMP    - TEMPERATURE IN FAHRENHEIT
  DWPT   - DEWPOINT IN FAHRENHEIT
  RH     - RELATIVE HUMIDITY IN PERCENT
  WIND   - DIRECTION AND SPEED IN MPH
  PRES   - MEAN SEA LEVEL PRESSURE IN INCHES OF HG
  WCI    - WIND CHILL INDEX
  VSB    - VISIBILITY IN MILES
  HX     - HEAT INDEX
  TC     - TEMPERATURE IN CELSIUS
  VRB    - VARIABLE WIND DIRECTION
  N/A    - NOT AVAILABLE

Return to Home page


Western Regional Climate Center, wrcc@dri.edu